Retour au catalogue

STARLINK-6332

ActifCommunicationsVLEO
NORAD 57339·PAYLOAD·🇺🇸 United States

Lancé Jul 16, 2023 depuis Cape Canaveral Space Force Station

Loading…

Prochains Passages (prochaines 24 heures)

TLE

FraisSource: CelesTrak SupGP

Époque: Sep 14, 2026, 22:22 UTC

1 57339C 23099M   26257.93243056  .00025502  00000+0  92390-3 0  2570
2 57339  42.9991 263.7793 0001362 262.3529 226.5127 15.27558302    15

Suivez STARLINK-6332 en temps réel avec AllMySat

Download on the App Store